Location: Goettingen
(51.5300°N, 9.9433°E)
Time: 14:42:20
(UTC+01:00)

ISS - Pass Details

Date: 21 January 2021
Orbit: 418 x 421 km, 51.6° (Epoch: 24 January)

Event Time Altitude Azimuth Distance (km) Brightness Sun altitude
Rises 19:28:36 0° 240° (WSW) 2,365 1.0 -24.1°
Reaches altitude 10° 19:30:43 10° 235° (SW) 1,504 -0.2 -24.4°
Enters shadow 19:32:27 26° 222° (SW) 859 -1.8 -24.7°
